Date String (YYYY-MM-DD hh:mm:ss) UTC,Instrument flags,Ambient pressure (hPa),Sample flow (lpm),Bypass flow (lpm),Sample temperature (°C),Ambient temperature (°C),ASC tube jacket temperature (°C),LED temperature (°C),Box temperature (°C),Sample RH (%),Span deviation,Mass concentration (μg/m³),Mass concentration (μg/m³),Mass concentration (μg/m³)
DateTimeUTC,F1_M11,P_M11,Q1_M11,Q2_M11,T1_M11,T2_M11,T3_M11,T4_M11,T5_M11,U1_M11,ZSPAN_M11,X0_M11,X2_M11,X1_M11
2023-01-23 21:00:00,,0824.3,4.99,0.00,22.4,20.9,00.0,31.2,24.2,14.5,0000.0,0012.85,0010.91,0010.66
2023-01-23 21:01:00,,0824.3,4.97,0.00,22.4,20.9,00.0,31.2,24.2,14.5,0000.0,0012.96,0010.99,0010.74
2023-01-23 21:02:00,,0824.3,5.02,0.00,22.4,20.8,00.0,31.2,24.1,14.5,0000.0,0013.06,0011.07,0010.83
2023-01-23 21:03:00,,0824.2,5.00,0.00,22.4,20.8,00.0,31.2,24.1,14.6,0000.0,0013.18,0011.16,0010.91
2023-01-23 21:04:00,,0824.2,5.00,0.00,22.3,20.8,00.0,31.2,24.1,14.6,0000.0,0013.21,0011.21,0010.96
2023-01-23 21:05:00,,0824.2,5.01,0.00,22.3,20.7,00.0,31.2,24.0,14.6,0000.0,0013.78,0011.25,0011.01
2023-01-23 21:06:00,,0824.2,5.01,0.00,22.3,20.7,00.0,31.2,24.0,14.7,0000.0,0014.03,0011.29,0011.06
2023-01-23 21:07:00,,0824.2,5.02,0.00,22.3,20.6,00.0,31.2,24.0,14.7,0000.0,0013.96,0011.30,0011.06
2023-01-23 21:08:00,,0824.2,5.02,0.00,22.3,20.7,00.0,31.1,24.0,14.6,0000.0,0013.95,0011.30,0011.05
2023-01-23 21:09:00,,0824.2,5.02,0.00,22.3,20.7,00.0,31.1,24.0,14.7,0000.8,0013.93,0011.31,0011.05
2023-01-23 21:10:00,,0824.2,4.99,0.00,22.3,20.7,00.0,31.1,24.0,14.8,0001.7,0013.89,0011.29,0011.04
2023-01-23 21:11:00,,0824.2,5.00,0.00,22.3,20.7,00.0,31.1,24.0,14.9,0002.1,0013.90,0011.29,0011.03
2023-01-23 21:12:00,,0824.1,4.99,0.00,22.3,20.7,00.0,31.1,24.0,14.8,0001.6,0013.89,0011.28,0011.04
2023-01-23 21:13:00,,0824.1,5.00,0.00,22.3,20.8,00.0,31.1,24.0,14.7,0001.0,0013.87,0011.26,0011.02
2023-01-23 21:14:00,,0824.2,5.02,0.00,22.3,20.8,00.0,31.1,24.0,14.7,0000.2,0013.77,0011.22,0010.99
2023-01-23 21:15:00,,0824.1,5.02,0.00,22.3,20.8,00.0,31.1,24.0,14.7,-000.7,0013.79,0011.20,0010.96
2023-01-23 21:16:00,,0824.1,5.02,0.00,22.3,20.8,00.0,31.1,24.0,14.8,-000.7,0013.35,0011.18,0010.93
2023-01-23 21:17:00,,0824.1,5.01,0.00,22.3,20.8,00.0,31.1,24.0,14.8,-000.5,0013.03,0011.15,0010.89
2023-01-23 21:18:00,,0824.1,4.98,0.00,22.2,20.7,00.0,31.1,24.0,14.8,-000.4,0013.05,0011.13,0010.89
2023-01-23 21:19:00,,0824.1,5.02,0.00,22.2,20.7,00.0,31.1,24.0,14.7,-000.6,0013.00,0011.12,0010.90
2023-01-23 21:20:00,,0824.1,5.00,0.00,22.2,20.7,00.0,31.1,24.0,14.8,-001.0,0012.99,0011.11,0010.90
2023-01-23 21:21:00,,0824.0,5.00,0.00,22.2,20.6,00.0,31.0,23.9,14.7,-001.2,0013.05,0011.16,0010.94
2023-01-23 21:22:00,,0824.0,5.01,0.00,22.2,20.6,00.0,31.0,23.9,14.7,-001.8,0013.17,0011.23,0010.98
2023-01-23 21:23:00,,0824.0,5.01,0.00,22.2,20.6,00.0,31.0,23.9,14.7,-001.8,0013.17,0011.25,0011.00
2023-01-23 21:24:00,,0824.0,5.00,0.00,22.2,20.6,00.0,31.0,23.9,14.8,-001.9,0013.30,0011.31,0011.03
2023-01-23 21:25:00,,0824.0,5.00,0.00,22.2,20.6,00.0,31.0,23.9,14.8,-001.6,0013.47,0011.37,0011.06
2023-01-23 21:26:00,,0824.1,5.00,0.00,22.2,20.6,00.0,31.0,23.9,14.9,-001.5,0013.50,0011.37,0011.09
2023-01-23 21:27:00,,0824.0,5.00,0.00,22.2,20.6,00.0,31.0,23.9,15.0,-001.2,0013.57,0011.43,0011.14
2023-01-23 21:28:00,,0824.1,5.01,0.00,22.2,20.6,00.0,31.0,23.9,14.9,-001.5,0013.68,0011.54,0011.23
2023-01-23 21:29:00,,0824.0,5.00,0.00,22.2,20.7,00.0,31.0,23.9,14.9,-001.7,0013.73,0011.64,0011.33
2023-01-23 21:30:00,,0824.0,5.01,0.00,22.2,20.7,00.0,31.0,24.0,14.9,-001.6,0013.87,0011.73,0011.43
2023-01-23 21:31:00,,0824.1,5.00,0.00,22.2,20.8,00.0,31.0,24.0,15.0,-001.8,0014.06,0011.85,0011.53
2023-01-23 21:32:00,,0824.1,5.01,0.00,22.2,20.8,00.0,31.0,24.0,15.1,-001.9,0014.15,0011.95,0011.63
2023-01-23 21:33:00,,0824.0,5.01,0.00,22.2,20.8,00.0,31.0,24.0,15.0,-001.6,0014.18,0012.02,0011.71
2023-01-23 21:34:00,,0824.0,5.00,0.00,22.2,20.8,00.0,31.0,24.0,15.1,-001.2,0014.29,0012.10,0011.79
2023-01-23 21:35:00,,0824.0,5.00,0.00,22.2,20.7,00.0,31.0,24.0,15.1,-001.3,0014.71,0012.18,0011.88
2023-01-23 21:36:00,,0824.0,4.99,0.00,22.2,20.7,00.0,31.0,23.9,15.0,-000.9,0014.75,0012.27,0011.98
2023-01-23 21:37:00,,0824.0,4.99,0.00,22.1,20.6,00.0,31.0,23.9,14.9,-001.2,0014.85,0012.40,0012.11
2023-01-23 21:38:00,,0824.0,5.00,0.00,22.1,20.5,00.0,31.0,23.9,15.0,-001.1,0015.01,0012.54,0012.22
2023-01-23 21:39:00,,0824.0,5.00,0.00,22.1,20.5,00.0,31.0,23.9,15.0,-000.8,0015.21,0012.65,0012.33
2023-01-23 21:40:00,,0824.0,5.01,0.00,22.1,20.5,00.0,31.0,23.9,14.9,-000.5,0015.34,0012.75,0012.42
2023-01-23 21:41:00,,0824.0,4.98,0.00,22.1,20.5,00.0,31.0,23.8,14.9,-000.9,0015.45,0012.88,0012.53
2023-01-23 21:42:00,,0824.0,5.00,0.00,22.1,20.5,00.0,30.9,23.9,14.8,-001.0,0015.63,0013.06,0012.68
2023-01-23 21:43:00,,0824.0,5.01,0.00,22.1,20.5,00.0,30.9,23.9,14.9,-000.9,0015.78,0013.19,0012.82
2023-01-23 21:44:00,,0824.0,4.99,0.00,22.1,20.5,00.0,30.9,23.9,14.9,-001.1,0015.91,0013.30,0012.93
2023-01-23 21:45:00,,0824.0,5.01,0.00,22.1,20.5,00.0,30.9,23.9,14.9,-001.6,0016.06,0013.42,0013.06
2023-01-23 21:46:00,,0824.0,5.00,0.00,22.1,20.6,00.0,30.9,23.9,14.9,-001.2,0015.88,0013.55,0013.18
2023-01-23 21:47:00,,0824.0,5.01,0.00,22.1,21.0,00.0,30.9,24.0,14.9,-001.3,0016.08,0013.67,0013.28
2023-01-23 21:48:00,,0824.0,5.02,0.00,22.2,22.0,00.0,30.9,24.2,14.9,-001.2,0016.18,0013.74,0013.35
2023-01-23 21:49:00,,0824.0,5.00,0.00,22.3,22.9,00.0,30.9,24.4,14.8,-001.2,0016.25,0013.80,0013.43
2023-01-23 21:50:00,,0824.1,5.00,0.00,22.4,22.7,00.0,31.0,24.5,14.7,-001.3,0016.24,0013.85,0013.49
2023-01-23 21:51:00,,0824.0,5.02,0.00,22.5,22.3,00.0,31.0,24.4,14.8,-001.3,0016.36,0013.92,0013.55
2023-01-23 21:52:00,,0824.0,5.01,0.00,22.5,22.0,00.0,31.1,24.4,14.7,-001.0,0016.53,0013.95,0013.59
2023-01-23 21:53:00,,0824.0,4.99,0.00,22.5,21.7,00.0,31.1,24.3,14.7,-000.6,0016.82,0013.96,0013.61
2023-01-23 21:54:00,,0824.1,5.01,0.00,22.5,21.5,00.0,31.1,24.3,14.6,-000.4,0016.86,0014.00,0013.65
2023-01-23 21:55:00,,0824.0,4.99,0.00,22.5,21.4,00.0,31.1,24.3,14.5,-000.1,0016.97,0014.10,0013.73
2023-01-23 21:56:00,,0824.1,4.99,0.00,22.5,21.3,00.0,31.1,24.2,14.5,0000.3,0017.44,0014.18,0013.80
2023-01-23 21:57:00,,0824.1,5.00,0.00,22.4,21.2,00.0,31.1,24.2,14.5,0000.5,0017.57,0014.26,0013.87
2023-01-23 21:58:00,,0824.1,4.99,0.00,22.4,21.2,00.0,31.2,24.2,14.6,-000.4,0017.54,0014.32,0013.94
2023-01-23 21:59:00,,0824.1,4.98,0.00,22.4,21.1,00.0,31.2,24.2,14.7,-000.5,0017.59,0014.39,0014.00
